Time,TemperatureF,DewpointF,PressureIn,WindDirection,WindDirectionDegrees,WindSpeedMPH,WindSpeedGustMPH,Humidity,HourlyPrecipIn,Conditions,Clouds,dailyrainin,SoftwareType,DateUTC
2013-02-16 00:06:00,40.7,32.0,29.99,NW,311,2.0,8.0,72,0.00,,,0.00,weatherlink.com 1.10,2013-02-16 05:06:00,
2013-02-16 00:21:00,40.7,32.0,29.98,North,9,5.0,8.0,70,0.00,,,0.00,weatherlink.com 1.10,2013-02-16 05:21:00,
2013-02-16 00:36:00,40.0,32.0,29.98,WNW,302,4.0,12.0,73,0.00,,,0.00,weatherlink.com 1.10,2013-02-16 05:36:00,
2013-02-16 00:51:00,39.2,32.0,29.98,WNW,296,3.0,8.0,76,0.00,,,0.00,weatherlink.com 1.10,2013-02-16 05:51:00,
2013-02-16 01:06:00,38.9,33.0,29.98,North,351,1.0,8.0,78,0.00,,,0.00,weatherlink.com 1.10,2013-02-16 06:06:00,
2013-02-16 01:21:00,38.7,33.0,29.98,NNW,327,3.0,4.0,79,0.00,,,0.00,weatherlink.com 1.10,2013-02-16 06:21:00,
2013-02-16 01:36:00,38.6,33.0,29.98,West,277,1.0,3.0,79,0.00,,,0.00,weatherlink.com 1.10,2013-02-16 06:36:00,
2013-02-16 01:51:00,38.5,33.0,29.98,WNW,288,0.0,2.0,79,0.00,,,0.00,weatherlink.com 1.10,2013-02-16 06:51:00,
2013-02-16 02:06:00,38.5,32.0,29.98,NE,36,2.0,3.0,78,0.00,,,0.00,weatherlink.com 1.10,2013-02-16 07:06:00,
2013-02-16 02:21:00,38.6,32.0,29.97,WNW,291,0.0,3.0,77,0.00,,,0.00,weatherlink.com 1.10,2013-02-16 07:21:00,
2013-02-16 02:36:00,38.6,32.0,29.97,NNW,340,1.0,5.0,76,0.00,,,0.00,weatherlink.com 1.10,2013-02-16 07:36:00,
2013-02-16 02:51:00,38.5,31.0,29.96,NNW,340,1.0,2.0,75,0.00,,,0.00,weatherlink.com 1.10,2013-02-16 07:51:00,
2013-02-16 03:06:00,38.2,31.0,29.96,NNE,32,0.0,2.0,74,0.00,,,0.00,weatherlink.com 1.10,2013-02-16 08:06:00,
2013-02-16 03:21:00,38.2,30.0,29.96,NW,308,1.0,3.0,73,0.00,,,0.00,weatherlink.com 1.10,2013-02-16 08:21:00,
2013-02-16 03:36:00,38.2,30.0,29.96,NNW,346,0.0,2.0,72,0.00,,,0.00,weatherlink.com 1.10,2013-02-16 08:36:00,
2013-02-16 03:51:00,38.1,30.0,29.96,NNW,346,0.0,0.0,73,0.00,,,0.00,weatherlink.com 1.10,2013-02-16 08:51:00,
2013-02-16 04:06:00,38.0,30.0,29.96,NNW,346,0.0,0.0,74,0.00,,,0.00,weatherlink.com 1.10,2013-02-16 09:06:00,
2013-02-16 04:21:00,37.8,30.0,29.96,NNW,346,0.0,0.0,74,0.00,,,0.00,weatherlink.com 1.10,2013-02-16 09:21:00,
2013-02-16 04:36:00,37.7,30.0,29.96,NNW,346,0.0,1.0,75,0.00,,,0.00,weatherlink.com 1.10,2013-02-16 09:36:00,
2013-02-16 04:51:00,37.5,30.0,29.96,NNW,346,0.0,1.0,74,0.00,,,0.00,weatherlink.com 1.10,2013-02-16 09:51:00,
2013-02-16 05:06:00,37.5,30.0,29.96,North,360,0.0,0.0,73,0.00,,,0.00,weatherlink.com 1.10,2013-02-16 10:06:00,
2013-02-16 05:22:00,37.3,30.0,29.96,North,360,0.0,1.0,76,0.00,,,0.00,weatherlink.com 1.10,2013-02-16 10:22:00,
2013-02-16 05:37:00,37.1,30.0,29.96,North,360,0.0,1.0,76,0.00,,,0.00,weatherlink.com 1.10,2013-02-16 10:37:00,
2013-02-16 05:52:00,37.2,30.0,29.96,NW,311,0.0,2.0,74,0.00,,,0.00,weatherlink.com 1.10,2013-02-16 10:52:00,
2013-02-16 06:07:00,37.4,29.0,29.96,NNE,15,0.0,3.0,71,0.00,,,0.00,weatherlink.com 1.10,2013-02-16 11:07:00,
2013-02-16 06:22:00,37.3,29.0,29.96,ENE,60,1.0,10.0,72,0.00,,,0.00,weatherlink.com 1.10,2013-02-16 11:22:00,
2013-02-16 06:37:00,36.9,30.0,29.96,North,360,4.0,6.0,75,0.00,,,0.00,weatherlink.com 1.10,2013-02-16 11:37:00,
2013-02-16 06:52:00,36.1,30.0,29.95,NNE,32,1.0,6.0,77,0.00,,,0.00,weatherlink.com 1.10,2013-02-16 11:52:00,
2013-02-16 07:07:00,35.7,29.0,29.96,North,5,0.0,4.0,77,0.00,,,0.00,weatherlink.com 1.10,2013-02-16 12:07:00,
2013-02-16 07:22:00,35.6,29.0,29.96,North,5,0.0,1.0,77,0.00,,,0.00,weatherlink.com 1.10,2013-02-16 12:22:00,
2013-02-16 07:37:00,35.7,29.0,29.96,North,350,1.0,10.0,76,0.00,,,0.00,weatherlink.com 1.10,2013-02-16 12:37:00,
2013-02-16 07:52:00,35.6,29.0,29.96,SSE,147,0.0,9.0,77,0.00,,,0.00,weatherlink.com 1.10,2013-02-16 12:52:00,
2013-02-16 08:07:00,35.5,29.0,29.97,NW,325,0.0,3.0,77,0.00,,,0.00,weatherlink.com 1.10,2013-02-16 13:07:00,
2013-02-16 08:22:00,35.8,29.0,29.96,NW,325,0.0,0.0,77,0.00,,,0.00,weatherlink.com 1.10,2013-02-16 13:22:00,
2013-02-16 08:37:00,36.4,28.0,29.96,ENE,76,1.0,7.0,71,0.00,,,0.00,weatherlink.com 1.10,2013-02-16 13:37:00,
2013-02-16 08:52:00,37.0,28.0,29.95,NNE,14,0.0,5.0,69,0.00,,,0.00,weatherlink.com 1.10,2013-02-16 13:52:00,
2013-02-16 09:07:00,37.3,28.0,29.95,NNW,338,1.0,3.0,68,0.00,,,0.00,weatherlink.com 1.10,2013-02-16 14:07:00,
2013-02-16 09:22:00,37.6,28.0,29.94,NNW,333,2.0,4.0,69,0.00,,,0.00,weatherlink.com 1.10,2013-02-16 14:22:00,
2013-02-16 09:37:00,38.2,26.0,29.94,SSW,210,2.0,8.0,62,0.00,,,0.00,weatherlink.com 1.10,2013-02-16 14:37:00,
2013-02-16 09:52:00,38.5,25.0,29.93,ENE,61,7.0,8.0,59,0.00,,,0.00,weatherlink.com 1.10,2013-02-16 14:52:00,
2013-02-16 10:07:00,38.3,25.0,29.93,SE,128,0.0,6.0,60,0.00,,,0.00,weatherlink.com 1.10,2013-02-16 15:07:00,
2013-02-16 10:22:00,38.7,26.0,29.93,ENE,59,1.0,6.0,60,0.00,,,0.00,weatherlink.com 1.10,2013-02-16 15:22:00,
2013-02-16 10:37:00,38.7,25.0,29.93,NE,47,1.0,8.0,58,0.00,,,0.00,weatherlink.com 1.10,2013-02-16 15:37:00,
2013-02-16 10:52:00,39.1,25.0,29.94,WSW,240,1.0,5.0,57,0.00,,,0.00,weatherlink.com 1.10,2013-02-16 15:52:00,
2013-02-16 11:07:00,39.0,24.0,29.93,NW,320,3.0,5.0,55,0.00,,,0.00,weatherlink.com 1.10,2013-02-16 16:07:00,
2013-02-16 11:22:00,39.1,24.0,29.92,NW,307,2.0,6.0,55,0.00,,,0.00,weatherlink.com 1.10,2013-02-16 16:22:00,
2013-02-16 11:37:00,39.2,24.0,29.93,WNW,298,2.0,4.0,55,0.00,,,0.00,weatherlink.com 1.10,2013-02-16 16:37:00,
2013-02-16 11:52:00,39.1,23.0,29.91,NNW,338,0.0,5.0,53,0.00,,,0.00,weatherlink.com 1.10,2013-02-16 16:52:00,
2013-02-16 12:07:00,39.2,23.0,29.91,NE,36,0.0,7.0,52,0.00,,,0.00,weatherlink.com 1.10,2013-02-16 17:07:00,
2013-02-16 12:22:00,39.1,22.0,29.89,NW,313,2.0,6.0,51,0.00,,,0.00,weatherlink.com 1.10,2013-02-16 17:22:00,
2013-02-16 12:37:00,39.3,24.0,29.89,NW,317,2.0,4.0,54,0.00,,,0.00,weatherlink.com 1.10,2013-02-16 17:37:00,
2013-02-16 12:52:00,39.5,23.0,29.89,WNW,285,1.0,5.0,53,0.00,,,0.00,weatherlink.com 1.10,2013-02-16 17:52:00,
2013-02-16 13:07:00,39.5,23.0,29.88,WNW,286,2.0,4.0,53,0.00,,,0.00,weatherlink.com 1.10,2013-02-16 18:07:00,
2013-02-16 13:22:00,39.1,24.0,29.87,East,84,0.0,5.0,54,0.00,,,0.00,weatherlink.com 1.10,2013-02-16 18:22:00,
2013-02-16 13:37:00,38.8,24.0,29.87,North,355,2.0,6.0,55,0.00,,,0.00,weatherlink.com 1.10,2013-02-16 18:37:00,
2013-02-16 13:52:00,38.3,24.0,29.86,NW,313,1.0,6.0,57,0.00,,,0.00,weatherlink.com 1.10,2013-02-16 18:52:00,
2013-02-16 14:07:00,38.1,24.0,29.86,WNW,302,0.0,7.0,58,0.00,,,0.00,weatherlink.com 1.10,2013-02-16 19:07:00,
2013-02-16 14:22:00,38.2,23.0,29.86,NNE,22,4.0,9.0,55,0.00,,,0.00,weatherlink.com 1.10,2013-02-16 19:22:00,
2013-02-16 14:37:00,38.3,24.0,29.85,NNW,346,5.0,9.0,56,0.00,,,0.00,weatherlink.com 1.10,2013-02-16 19:37:00,
2013-02-16 14:52:00,37.8,24.0,29.86,NW,306,1.0,8.0,59,0.00,,,0.00,weatherlink.com 1.10,2013-02-16 19:52:00,
2013-02-16 15:07:00,37.1,24.0,29.86,NW,305,2.0,6.0,60,0.00,,,0.00,weatherlink.com 1.10,2013-02-16 20:07:00,
2013-02-16 15:22:00,36.4,25.0,29.85,NW,304,2.0,8.0,63,0.00,,,0.00,weatherlink.com 1.10,2013-02-16 20:22:00,
2013-02-16 15:37:00,36.4,24.0,29.86,NNW,347,2.0,5.0,62,0.00,,,0.00,weatherlink.com 1.10,2013-02-16 20:37:00,
2013-02-16 15:52:00,36.7,24.0,29.86,WNW,300,3.0,4.0,61,0.00,,,0.00,weatherlink.com 1.10,2013-02-16 20:52:00,
2013-02-16 16:07:00,36.8,23.0,29.85,NW,312,2.0,9.0,57,0.00,,,0.00,weatherlink.com 1.10,2013-02-16 21:07:00,
2013-02-16 16:23:00,37.4,22.0,29.85,NW,315,6.0,8.0,55,0.00,,,0.00,weatherlink.com 1.10,2013-02-16 21:23:00,
2013-02-16 16:38:00,38.9,20.0,29.85,NW,311,3.0,10.0,47,0.00,,,0.00,weatherlink.com 1.10,2013-02-16 21:38:00,
2013-02-16 16:53:00,39.7,20.0,29.84,ESE,121,1.0,10.0,46,0.00,,,0.00,weatherlink.com 1.10,2013-02-16 21:53:00,
2013-02-16 17:08:00,39.3,18.0,29.84,West,281,5.0,8.0,42,0.00,,,0.00,weatherlink.com 1.10,2013-02-16 22:08:00,
2013-02-16 17:23:00,37.7,17.0,29.85,NW,318,4.0,8.0,44,0.00,,,0.00,weatherlink.com 1.10,2013-02-16 22:23:00,
2013-02-16 17:38:00,36.6,16.0,29.85,NW,319,4.0,9.0,44,0.00,,,0.00,weatherlink.com 1.10,2013-02-16 22:38:00,
2013-02-16 17:53:00,35.8,15.0,29.86,WNW,299,7.0,12.0,43,0.00,,,0.00,weatherlink.com 1.10,2013-02-16 22:53:00,
2013-02-16 18:08:00,35.0,15.0,29.86,NNW,327,2.0,9.0,44,0.00,,,0.00,weatherlink.com 1.10,2013-02-16 23:08:00,
2013-02-16 18:23:00,34.4,14.0,29.87,West,262,2.0,13.0,44,0.00,,,0.00,weatherlink.com 1.10,2013-02-16 23:23:00,
2013-02-16 18:38:00,33.8,14.0,29.88,NW,317,3.0,8.0,44,0.00,,,0.00,weatherlink.com 1.10,2013-02-16 23:38:00,
2013-02-16 18:53:00,33.2,14.0,29.89,WNW,300,3.0,8.0,45,0.00,,,0.00,weatherlink.com 1.10,2013-02-16 23:53:00,
2013-02-16 19:08:00,32.9,14.0,29.89,NW,313,4.0,9.0,45,0.00,,,0.00,weatherlink.com 1.10,2013-02-17 00:08:00,
2013-02-16 19:23:00,32.6,14.0,29.89,West,273,5.0,11.0,46,0.00,,,0.00,weatherlink.com 1.10,2013-02-17 00:23:00,
2013-02-16 19:38:00,32.1,15.0,29.90,WNW,286,5.0,8.0,49,0.00,,,0.00,weatherlink.com 1.10,2013-02-17 00:38:00,
2013-02-16 19:53:00,31.4,15.0,29.91,NW,316,3.0,8.0,52,0.00,,,0.00,weatherlink.com 1.10,2013-02-17 00:53:00,
2013-02-16 20:08:00,30.7,16.0,29.91,WNW,303,2.0,5.0,55,0.00,,,0.00,weatherlink.com 1.10,2013-02-17 01:08:00,
2013-02-16 20:23:00,30.2,16.0,29.91,WNW,285,2.0,5.0,57,0.00,,,0.00,weatherlink.com 1.10,2013-02-17 01:23:00,
2013-02-16 20:38:00,29.7,16.0,29.92,NW,317,3.0,9.0,57,0.00,,,0.00,weatherlink.com 1.10,2013-02-17 01:38:00,
2013-02-16 20:53:00,29.4,16.0,29.92,NW,313,2.0,4.0,58,0.00,,,0.00,weatherlink.com 1.10,2013-02-17 01:53:00,
2013-02-16 21:08:00,28.9,16.0,29.93,WNW,286,1.0,3.0,58,0.00,,,0.00,weatherlink.com 1.10,2013-02-17 02:08:00,
2013-02-16 21:23:00,28.7,16.0,29.93,WNW,286,1.0,4.0,59,0.00,,,0.00,weatherlink.com 1.10,2013-02-17 02:23:00,
2013-02-16 21:38:00,28.6,16.0,29.94,West,274,1.0,3.0,60,0.00,,,0.00,weatherlink.com 1.10,2013-02-17 02:38:00,
2013-02-16 21:53:00,28.4,17.0,29.94,WNW,290,2.0,3.0,63,0.00,,,0.00,weatherlink.com 1.10,2013-02-17 02:53:00,
2013-02-16 22:08:00,28.0,16.0,29.94,West,263,2.0,4.0,61,0.00,,,0.00,weatherlink.com 1.10,2013-02-17 03:08:00,
2013-02-16 22:23:00,27.9,16.0,29.94,WNW,303,2.0,3.0,60,0.00,,,0.00,weatherlink.com 1.10,2013-02-17 03:23:00,
2013-02-16 22:38:00,27.8,15.0,29.95,WNW,289,1.0,3.0,59,0.00,,,0.00,weatherlink.com 1.10,2013-02-17 03:38:00,
2013-02-16 22:53:00,28.0,15.0,29.94,WNW,290,2.0,8.0,58,0.00,,,0.00,weatherlink.com 1.10,2013-02-17 03:53:00,
2013-02-16 23:08:00,28.0,14.0,29.94,WNW,285,3.0,8.0,57,0.00,,,0.00,weatherlink.com 1.10,2013-02-17 04:08:00,
2013-02-16 23:23:00,28.4,14.0,29.94,NW,304,3.0,7.0,56,0.00,,,0.00,weatherlink.com 1.10,2013-02-17 04:23:00,
2013-02-16 23:38:00,28.4,14.0,29.95,NW,306,6.0,9.0,55,0.00,,,0.00,weatherlink.com 1.10,2013-02-17 04:38:00,
2013-02-16 23:53:00,28.2,15.0,29.95,NW,313,1.0,4.0,57,0.00,,,0.00,weatherlink.com 1.10,2013-02-17 04:53:00,